Annapolis Naval Academy, MD

1:04 PM EDT on June 25, 2017 (GMT -0400)
Annapolis Naval Academy

Weather History for KNAK - May, 2014

Change the Weather History Date:

Monday, May 26, 2014

  Actual Average (KBWI) Record (KBWI)
Temperature  
Mean Temperature 73 °F -  
Max Temperature 84 °F 74 °F 94 °F (1914)
Min Temperature 62 °F 55 °F 41 °F (1967)
Cooling Degree Days 8    
Growing Degree Days 23 (Base 50)    
Moisture  
Dew Point 59 °F    
Average Humidity 66    
Maximum Humidity 80    
Minimum Humidity 34    
Precipitation  
Precipitation 0.00 in - - ()
Sea Level Pressure  
Sea Level Pressure 30.07 in    
Wind  
Wind Speed 3 mph (SW)    
Max Wind Speed 14 mph    
Max Gust Speed -    
Visibility 10 miles    
Events      
Averages and records for this station are not official NWS values.
T = Trace of Precipitation, MM = Missing Value Source: NWS Daily Summary

Daily Weather History Graph

Daily Weather History Graph

Search for Another Location

Airport or City:

Trip Planner

Search our weather history database for the weather conditions in past years. The results will help you decide how hot, cold, wet, or windy it might be!

Date:

Astronomy

May. 26, 2014 Rise Set
Actual Time 5:45 AM EDT 8:21 PM EDT
Civil Twilight 5:14 AM EDT 8:52 PM EDT
Nautical Twilight 4:35 AM EDT 9:30 PM EDT
Astronomical Twilight 3:52 AM EDT 10:14 PM EDT
Moon 4:24 AM EDT (5/26) 6:22 PM EDT (5/26)
Length of Visible Light 15h 38m
Length of Day
14h 36m
Waning Crescent, 5% of the Moon is Illuminated
May 26
Waning Crescent
May 28
New
Jun 5
First Quarter
Jun 13
Full
Jun 19
Last Quarter

Hourly Weather History & Observations

Time (EDT) Temp. Heat Index Dew Point Humidity Pressure Visibility Wind Dir Wind Speed Gust Speed Precip Events Conditions
12:54 AM 66.0 °F - 57.0 °F 73% 30.13 in 10.0 mi WNW 3.5 mph - N/A   Clear
1:54 AM 64.9 °F - 57.0 °F 75% 30.12 in 10.0 mi Calm Calm - N/A   Clear
2:54 AM 64.9 °F - 57.9 °F 78% 30.12 in 10.0 mi Calm Calm - N/A   Clear
3:54 AM 63.0 °F - 55.0 °F 75% 30.12 in 10.0 mi Calm Calm - N/A   Clear
4:54 AM 64.0 °F - 55.9 °F 75% 30.11 in 10.0 mi Calm Calm - N/A   Clear
5:54 AM 62.1 °F - 55.9 °F 80% 30.12 in 10.0 mi Calm Calm - N/A   Clear
6:54 AM 64.0 °F - 55.9 °F 75% 30.13 in 10.0 mi Variable 3.5 mph - N/A   Clear
7:54 AM 68.0 °F - 57.0 °F 68% 30.14 in 10.0 mi Variable 4.6 mph - N/A   Clear
8:54 AM 73.0 °F - 59.0 °F 61% 30.14 in 10.0 mi West 5.8 mph - N/A   Clear
9:54 AM 75.0 °F - 59.0 °F 57% 30.13 in 10.0 mi WNW 5.8 mph - N/A   Clear
10:54 AM 75.0 °F - 64.0 °F 69% 30.12 in 10.0 mi ESE 5.8 mph - N/A   Clear
11:54 AM 73.0 °F - 64.0 °F 73% 30.10 in 10.0 mi ESE 11.5 mph - N/A   Clear
12:54 PM 78.1 °F - 62.1 °F 58% 30.07 in 10.0 mi Variable 6.9 mph - N/A   Clear
1:54 PM 77.0 °F - 64.0 °F 64% 30.05 in 10.0 mi SSE 11.5 mph - N/A   Clear
2:54 PM 77.0 °F - 64.0 °F 64% 30.04 in 10.0 mi SE 13.8 mph - N/A   Clear
3:54 PM 84.9 °F 83.3 °F 54.0 °F 34% 30.01 in 10.0 mi West 9.2 mph - N/A   Clear
5:54 PM 82.9 °F 81.8 °F 53.1 °F 36% 29.99 in 10.0 mi WNW 3.5 mph - N/A   Clear
6:54 PM 82.9 °F 81.9 °F 54.0 °F 37% 29.99 in 10.0 mi Calm Calm - N/A   Clear
7:54 PM 75.9 °F - 64.0 °F 67% 29.99 in 10.0 mi Calm Calm - N/A   Clear
8:54 PM 73.0 °F - 63.0 °F 71% 29.99 in 10.0 mi Calm Calm - N/A   Clear
9:54 PM 72.0 °F - 63.0 °F 73% 30.00 in 10.0 mi Calm Calm - N/A   Clear
10:54 PM 71.1 °F - 64.0 °F 78% 29.99 in 10.0 mi Calm Calm - N/A   Clear
11:54 PM 71.1 °F - 64.0 °F 78% 29.98 in 10.0 mi Calm Calm - N/A   Clear